Regional Weather Roundup
Issued by NWS State College, PA

Home | Current Version | Previous Version | Text Only | Print | Product List | Glossary Off
Versions: 1 2 3 4 5 6 7 8 9 10 11 12 13 14 15 16 17 18 19 20 21 22 23 24 25 26 27 28 29 30 31 32 33 34 35 36 37 38 39 40 41 42 43 44 45 46 47 48 49 50

000
ASUS41 KCTP 201803
RWRCTP
REGIONAL WEATHER ROUNDUP
NATIONAL WEATHER SERVICE STATE COLLEGE PA
100 PM EST SAT JAN 20 2018

Note: "fair" indicates few or no clouds below 12,000 feet with no
significant weather and/or obstructions to visibility.

* = STATION THAT DOES NOT REPORT PRECIPITATION /E.G. RAIN...SNOW...ETC/
    THUNDER OR FOG.

PAZ002>004-007>009-013>016-020>023-029>032-201900-
WESTERN PENNSYLVANIA

CITY           SKY/WX    TMP DP  RH WIND       PRES   REMARKS
ERIE           FAIR      41  26  55 SW14      29.95F
MEADVILLE      FAIR      38  26  62 SW14      29.96F
FRANKLIN*      FAIR      39  25  57 SW10      29.97F
NEW CASTLE     FAIR      42  26  53 SW12G17   30.00F
BEAVER COUNTY  NOT AVBL
BUTLER*        FAIR      42  26  53 W16       29.99
PITTSBURGH INT PTSUNNY   44  26  49 SW12G23   30.00F
PITTSBURGH     FAIR      42  26  53 SW14G23   30.00F
INDIANA*       SUNNY     43  28  56 W16       30.01F
LATROBE        MOSUNNY   45  28  53 SW17G29   30.02F
WASHINGTON CO* NOT AVBL
$$

PAZ004>006-010>012-017>019-024>028-033>037-041-042-045-046-049>053-201900-
CENTRAL PENNSYLVANIA

CITY           SKY/WX    TMP DP  RH WIND       PRES   REMARKS
BRADFORD       FAIR      39  25  57 W8G20     29.89F
DUBOIS         FAIR      39  24  55 W20G26    29.94F
CLEARFIELD     FAIR      43  26  51 W14G23    29.94F
JOHNSTOWN      FAIR      41  28  60 W15G24    29.93F
ALTOONA        FAIR      48  31  51 W13       29.95F
STATE COLLEGE  SUNNY     43  28  56 W15       29.93F
WILLIAMSPORT   FAIR      44  27  51 W14       29.90F
SELINSGROVE    FAIR      44  26  49 VRB3      29.93F
FT INDIANTOWN  FAIR      45  31  57 SW7       29.92F
CAPITAL CITY   FAIR      49  32  52 W9        29.93F
HARRISBURG     CLOUDY    48  30  49 W10G21    29.93F
YORK           FAIR      51  32  48 W9        29.94F
$$

PAZ038>040-043-044-047-048-054-055-060>062-067>071-201900-
EASTERN PENNSYLVANIA

CITY           SKY/WX    TMP DP  RH WIND       PRES   REMARKS
SCRANTON       FAIR      40  26  57 SW12G21   29.87S
MOUNT POCONO   FAIR      37  25  61 W20G32    29.82S
ALLENTOWN      FAIR      47  28  47 W10       29.90F
QUAKERTOWN*    FAIR      48  28  46 MISG      29.91F
READING        FAIR      49  33  54 W8        29.91F
LANCASTER      FAIR      50  33  52 W14       29.92F
COATESVILLE    FAIR      52  30  43 W14G23    29.93F
POTTSTOWN      FAIR      51  29  42 W10G21    29.92F
BLUE BELL      FAIR      52  30  43 W8        29.92F
DOYLESTOWN     FAIR      53  29  39 W13G21    29.89F
WILLOW GROVE   NOT AVBL
NORTH PHILA    FAIR      56  29  35 W17       29.93F
PHILADELPHIA   PTSUNNY   54  29  38 W14       29.93F
$$




USA.gov is the U.S. government's official web portal to all federal, state and local government web resources and services.